Wind_Speed
24 24 23 24 24 24 25 25 25 26 27 25 24 24 23 23 23 23 22 23 23 24 26 27 28 29 27 25 23 22 21 20 19 18 17 17 16 15 16 16 15 14 14
25 24 23 23 24 24 24 24 24 23 22 21 20 20 20 20 20 21 21 21 22 23 24 25 27 29 30 29 28 27 26 24 23 22 21 20 19 18 17 17 17 16 15
24 23 22 22 22 23 23 23 23 22 20 19 19 19 18 18 19 19 20 21 21 22 24 24 26 28 29 31 31 31 31 29 27 27 26 24 23 22 21 20 19 18 17
24 22 22 22 22 22 22 22 21 20 18 17 16 16 16 17 18 18 19 20 21 22 24 26 26 27 28 30 32 32 33 33 31 30 30 29 27 25 24 23 22 21 20
24 22 22 21 21 21 21 20 19 18 17 16 15 15 14 15 16 17 18 20 21 22 24 26 27 28 28 29 30 32 33 33 33 32 32 32 30 29 27 26 25 25 24
24 23 22 21 21 20 20 19 18 17 16 15 14 13 13 13 14 16 17 19 21 22 24 26 27 28 29 30 30 32 32 32 33 33 33 34 33 31 30 29 28 27 26
23 23 22 22 21 20 19 18 18 17 16 15 14 13 13 13 13 15 17 18 20 22 24 25 27 29 30 30 30 31 32 34 34 34 34 35 35 33 32 32 31 29 29
23 23 23 23 22 21 20 19 19 18 18 17 15 15 14 14 13 15 16 18 20 22 24 26 27 29 31 31 30 31 32 34 34 35 35 35 34 33 33 33 32 31 30
23 23 23 23 23 22 21 21 20 20 20 19 17 16 15 15 15 17 17 18 20 22 23 25 27 29 31 31 31 31 31 32 34 34 35 34 34 33 33 33 33 32 32
23 23 24 24 24 24 24 23 23 23 22 22 20 18 17 16 16 19 20 19 20 21 23 24 25 27 29 31 32 32 31 31 32 33 35 34 32 32 33 33 33 33 33
24 25 26 26 27 27 27 27 26 25 24 24 23 21 20 18 17 17 20 21 21 21 22 23 24 26 28 31 32 32 30 29 29 29 31 32 31 31 32 33 33 33 33
27 27 27 28 29 30 31 30 29 28 27 26 25 24 22 21 20 18 19 22 22 22 21 21 22 24 26 28 30 31 28 26 26 26 27 27 28 29 29 31 32 33 33
31 31 30 31 31 33 34 34 32 31 30 29 27 26 25 23 22 21 21 21 22 23 22 21 20 21 24 26 27 28 26 25 23 22 23 23 23 26 27 28 29 31 32
39 37 35 35 35 35 36 36 36 34 33 32 31 29 28 26 25 24 23 22 21 22 23 22 20 20 22 24 25 26 25 23 22 21 21 21 22 24 25 26 28 29 30
47 45 43 42 40 40 39 40 39 39 37 36 34 33 31 29 27 26 25 23 22 21 23 22 20 20 21 23 23 24 24 23 23 23 23 23 23 24 25 26 26 27 28
53 52 51 50 48 46 44 43 43 42 41 39 38 36 34 32 30 29 27 26 23 21 21 22 21 20 21 22 23 24 24 25 25 25 25 24 25 25 25 26 26 26 27
58 58 57 56 55 54 51 50 47 45 44 43 42 40 38 35 33 31 29 28 25 23 21 22 21 21 20 21 23 24 25 26 26 26 25 25 26 25 26 26 26 25 25
63 62 62 62 61 60 59 57 54 51 49 47 45 43 41 39 36 34 32 30 27 24 22 22 22 21 21 21 22 24 25 26 26 26 26 26 26 26 25 25 25 24 25
66 67 67 66 65 65 63 61 59 56 54 51 49 46 44 41 38 36 34 32 29 26 23 23 23 21 21 20 21 23 24 25 25 25 26 26 25 25 25 24 24 23 23
59 64 68 70 70 70 68 65 63 60 57 55 52 49 47 44 41 39 36 34 32 29 25 24 23 21 20 20 21 22 23 24 23 23 23 23 22 22 23 22 22 23 23
45 52 59 65 69 71 72 70 67 64 60 57 55 52 49 46 43 40 38 36 33 30 27 25 23 22 20 20 20 20 21 21 21 21 22 21 21 20 21 21 21 22 22
39 40 44 50 58 64 69 72 71 68 64 60 57 54 51 48 45 42 40 37 35 31 28 25 24 22 21 20 19 19 20 20 20 21 21 21 21 20 20 21 21 22 22
39 38 37 39 43 50 58 64 69 70 67 63 59 56 52 49 46 44 42 39 36 33 29 26 24 22 20 19 18 19 19 19 19 19 19 20 21 21 20 20 20 20 20
42 41 39 37 36 38 42 49 57 63 65 65 62 58 54 51 48 45 43 40 37 34 30 27 24 22 21 20 19 19 19 19 19 18 18 19 19 20 21 20 20 19 19
43 42 40 38 36 34 34 37 42 49 56 60 62 61 57 52 49 46 44 41 38 34 31 28 26 23 21 20 19 19 19 19 19 18 18 18 18 19 20 20 20 19 18
41 41 39 38 36 34 33 33 35 39 45 52 57 59 58 54 50 47 44 41 38 35 31 29 26 24 21 19 19 19 19 19 19 18 18 18 19 20 20 20 19 19 18
Wind_Direction
286 283 280 276 274 274 274 275 277 279 278 274 273 272 272 270 270 270 267 268 265 260 255 252 250 245 245 245 245 246 245 246 246 246 245 243 242 241 238 238 242 246 251
284 281 278 274 271 270 269 269 270 275 276 274 273 275 277 275 273 269 268 267 263 260 254 252 251 246 244 244 244 243 243 244 246 247 247 246 244 242 241 240 241 244 248
284 280 277 274 271 268 266 265 266 270 271 269 269 271 273 273 273 272 270 267 264 262 257 253 251 249 247 246 245 244 244 244 246 247 247 246 246 245 244 243 243 245 247
284 280 276 272 269 266 264 264 264 265 262 264 266 269 273 274 275 274 272 269 266 263 259 254 251 249 248 247 247 246 244 242 244 247 246 245 245 246 246 245 245 247 248
284 281 276 273 268 265 263 262 261 260 259 260 262 267 272 277 280 280 278 275 270 264 260 256 252 250 247 246 246 244 242 241 242 244 245 244 244 245 247 248 248 249 249
284 281 278 274 268 263 260 257 256 254 254 254 257 263 270 276 281 284 283 281 277 270 264 258 254 250 247 246 246 244 241 240 241 242 243 243 243 244 246 248 248 249 250
280 278 276 272 266 260 255 252 250 248 246 246 252 260 267 274 282 286 287 286 282 276 269 262 257 252 250 247 246 244 242 240 241 241 241 240 241 243 245 247 248 249 251
273 272 270 267 261 255 249 247 246 246 245 243 249 255 263 273 282 288 292 291 288 282 275 267 259 254 250 248 245 243 241 240 240 241 241 238 238 241 244 246 248 249 250
269 266 265 261 256 251 247 246 247 247 248 247 246 250 258 271 285 292 295 295 293 287 281 273 266 258 253 249 247 244 241 240 240 240 240 239 237 240 244 246 248 249 250
269 264 261 257 252 249 248 248 250 251 252 252 250 250 255 265 279 291 297 299 297 291 285 278 271 262 255 251 248 245 243 242 242 241 239 239 239 241 244 246 247 248 249
268 263 260 257 252 249 249 250 252 254 255 256 255 255 258 264 273 284 294 299 299 295 290 282 275 264 258 252 247 246 245 244 244 244 242 239 240 243 245 246 247 247 248
266 261 259 257 254 250 249 251 253 254 255 257 257 258 262 267 273 281 288 295 298 297 294 285 276 266 258 252 247 244 244 245 246 244 242 242 243 244 245 246 246 246 247
266 261 258 256 255 254 252 252 253 254 255 256 257 258 262 268 274 279 285 290 294 296 296 290 280 269 259 254 248 241 241 244 245 243 242 244 245 243 244 246 246 247 247
265 261 258 255 254 253 253 253 253 254 255 255 256 257 261 266 272 276 282 286 290 292 294 292 285 273 261 254 247 239 237 239 242 241 242 243 244 244 246 248 248 248 247
263 261 258 255 253 251 252 253 253 252 253 254 254 256 259 264 269 274 279 282 285 289 292 291 286 275 263 254 247 239 237 239 240 241 242 243 245 247 249 250 250 250 249
261 259 258 255 253 252 249 250 251 251 251 252 252 254 257 261 266 270 275 278 281 285 288 289 285 275 263 253 246 241 238 237 239 240 242 245 248 250 252 253 252 251 249
259 257 256 255 253 252 251 249 249 249 250 250 251 252 255 258 262 266 270 273 276 280 283 285 283 275 265 254 247 242 239 238 240 242 245 248 250 252 253 254 254 252 249
256 255 254 253 252 251 250 249 249 248 249 249 250 250 252 255 258 262 265 267 270 275 279 281 280 276 268 258 249 242 240 240 241 244 247 249 251 252 253 255 254 252 251
254 252 251 250 250 250 250 250 248 248 248 248 248 249 250 252 254 257 260 262 264 268 273 277 276 274 269 260 249 243 242 242 243 245 247 250 252 252 252 253 251 250 251
253 251 250 249 248 248 248 248 247 247 246 246 246 246 247 249 251 253 255 257 259 263 267 272 274 271 266 260 252 246 244 243 245 246 247 249 250 250 249 248 247 246 247
261 255 251 248 247 246 246 246 245 245 244 243 243 243 244 245 247 249 251 252 255 258 262 266 269 267 262 257 251 246 244 244 245 245 245 247 250 249 249 247 247 243 245
268 264 258 252 248 246 245 244 243 242 242 241 240 240 241 242 243 245 246 248 250 253 256 260 263 262 258 255 250 245 244 244 244 244 245 246 247 249 250 249 244 243 245
265 264 263 259 254 249 246 244 243 241 240 238 238 237 237 237 239 241 242 244 246 249 251 254 257 257 255 251 246 244 243 243 241 241 242 242 245 247 249 246 241 240 240
263 262 260 259 258 254 250 246 243 240 239 237 235 234 234 234 235 236 238 241 243 244 246 249 251 252 250 247 244 242 241 242 240 242 244 245 245 244 244 242 239 235 233
260 259 257 256 255 253 252 249 245 240 236 234 232 231 231 231 231 233 235 238 238 239 242 246 246 247 246 243 242 242 242 240 241 245 246 246 244 242 238 237 234 230 227
257 254 252 251 250 250 251 251 248 241 235 231 228 227 227 227 227 230 232 233 234 236 238 239 241 242 241 240 239 241 242 239 238 242 245 245 244 241 238 232 223 220 221
Height
5860 5859 5857 5856 5855 5854 5853 5852 5852 5851 5850 5850 5850 5850 5850 5849 5849 5849 5850 5850 5851 5852 5853 5854 5856 5858 5861 5863 5864 5866 5868 5869 5871 5873 5874 5876 5877 5878 5880 5881 5882 5884 5885
5854 5852 5851 5850 5849 5848 5847 5847 5846 5846 5845 5845 5845 5845 5845 5844 5844 5844 5845 5845 5846 5846 5847 5848 5850 5851 5854 5856 5858 5860 5862 5864 5866 5868 5870 5872 5873 5875 5876 5878 5879 5880 5882
5847 5846 5844 5843 5842 5841 5841 5841 5841 5841 5841 5841 5841 5840 5840 5840 5840 5840 5840 5840 5841 5841 5842 5843 5844 5845 5847 5849 5851 5853 5856 5858 5860 5862 5864 5866 5869 5870 5872 5874 5875 5877 5878
5840 5839 5838 5837 5836 5835 5835 5835 5836 5836 5836 5836 5836 5836 5836 5836 5835 5835 5835 5835 5835 5836 5836 5837 5837 5838 5840 5841 5843 5846 5848 5851 5853 5856 5858 5860 5863 5865 5867 5869 5871 5872 5874
5832 5831 5831 5830 5829 5829 5829 5829 5830 5830 5831 5831 5832 5832 5831 5831 5830 5830 5829 5829 5829 5830 5830 5830 5831 5832 5833 5834 5836 5837 5840 5843 5846 5848 5851 5854 5856 5859 5862 5864 5865 5867 5869
5825 5824 5824 5823 5823 5823 5823 5824 5824 5825 5826 5827 5827 5827 5827 5826 5826 5825 5824 5823 5823 5823 5823 5823 5824 5824 5826 5827 5828 5830 5832 5835 5838 5840 5843 5847 5849 5852 5855 5857 5860 5862 5864
5819 5818 5818 5818 5817 5817 5818 5818 5819 5819 5821 5822 5823 5823 5823 5822 5821 5820 5819 5818 5817 5816 5816 5816 5817 5818 5819 5820 5821 5822 5825 5827 5829 5832 5835 5838 5842 5845 5848 5850 5853 5855 5857
5813 5812 5812 5812 5812 5812 5812 5813 5814 5814 5815 5817 5818 5818 5818 5818 5817 5816 5814 5812 5811 5809 5809 5809 5809 5810 5811 5813 5814 5815 5817 5819 5821 5823 5826 5830 5833 5837 5840 5843 5846 5848 5850
5806 5806 5805 5806 5806 5806 5807 5808 5809 5809 5810 5811 5813 5813 5814 5813 5812 5810 5809 5807 5805 5803 5802 5802 5802 5803 5804 5805 5807 5808 5809 5812 5814 5815 5818 5822 5825 5829 5832 5835 5838 5840 5843
5798 5798 5798 5799 5799 5800 5800 5802 5803 5804 5804 5805 5806 5807 5808 5808 5807 5805 5803 5802 5800 5797 5796 5795 5795 5796 5797 5798 5800 5801 5802 5804 5806 5808 5811 5814 5817 5821 5824 5827 5830 5832 5835
5791 5790 5790 5791 5792 5792 5793 5794 5795 5797 5797 5798 5799 5800 5801 5802 5802 5801 5798 5796 5794 5792 5791 5789 5789 5789 5790 5791 5792 5794 5795 5796 5798 5801 5804 5807 5810 5813 5817 5819 5822 5824 5827
5783 5783 5783 5783 5783 5784 5785 5786 5787 5789 5790 5791 5792 5793 5794 5794 5795 5795 5793 5791 5788 5786 5785 5784 5783 5782 5783 5783 5785 5787 5789 5791 5793 5795 5798 5801 5804 5806 5809 5812 5814 5816 5819
5773 5774 5774 5774 5774 5775 5776 5777 5778 5780 5781 5783 5784 5786 5786 5787 5787 5788 5787 5785 5783 5780 5778 5777 5776 5776 5776 5776 5777 5780 5783 5785 5787 5789 5792 5794 5797 5799 5802 5805 5806 5808 5811
5761 5762 5763 5764 5764 5765 5766 5767 5768 5770 5772 5774 5776 5777 5779 5779 5780 5780 5780 5779 5778 5775 5773 5771 5770 5769 5769 5770 5771 5773 5777 5779 5781 5784 5786 5789 5791 5793 5795 5797 5799 5801 5803
5747 5747 5749 5750 5752 5753 5755 5756 5758 5760 5762 5764 5766 5768 5770 5771 5772 5773 5773 5773 5772 5770 5768 5766 5765 5763 5762 5763 5765 5767 5770 5773 5775 5778 5781 5783 5785 5787 5789 5790 5791 5793 5795
5730 5731 5733 5735 5737 5739 5741 5744 5746 5748 5750 5753 5756 5758 5761 5763 5764 5765 5765 5765 5765 5765 5763 5760 5759 5758 5757 5758 5759 5761 5764 5767 5769 5772 5775 5777 5779 5780 5782 5783 5784 5786 5787
5710 5713 5715 5717 5720 5723 5726 5729 5732 5735 5738 5741 5744 5748 5751 5753 5755 5756 5757 5758 5758 5758 5757 5756 5754 5752 5752 5752 5754 5755 5758 5761 5763 5766 5768 5770 5772 5773 5775 5776 5777 5779 5780
5687 5691 5694 5697 5701 5704 5708 5713 5716 5720 5724 5728 5732 5736 5740 5743 5746 5748 5749 5750 5751 5751 5751 5750 5748 5747 5746 5747 5748 5750 5752 5754 5757 5759 5761 5763 5765 5766 5768 5769 5770 5772 5773
5662 5666 5671 5675 5679 5684 5688 5694 5699 5704 5709 5714 5718 5723 5728 5732 5735 5738 5741 5742 5743 5744 5744 5744 5743 5742 5741 5741 5742 5744 5746 5748 5750 5753 5755 5756 5758 5760 5761 5763 5764 5765 5767
5637 5640 5645 5650 5656 5661 5667 5673 5679 5686 5692 5698 5704 5710 5715 5720 5724 5728 5731 5733 5735 5737 5737 5738 5737 5736 5736 5736 5736 5738 5740 5742 5744 5746 5748 5750 5751 5753 5754 5756 5757 5759 5761
5616 5618 5621 5626 5631 5638 5644 5651 5658 5666 5674 5681 5688 5695 5701 5707 5712 5717 5721 5724 5727 5729 5730 5731 5731 5730 5730 5730 5731 5732 5734 5736 5738 5740 5741 5744 5745 5747 5748 5750 5751 5753 5754
5600 5601 5602 5605 5609 5615 5621 5628 5636 5645 5654 5663 5671 5680 5687 5694 5700 5705 5710 5714 5718 5720 5723 5724 5725 5725 5725 5725 5725 5727 5729 5731 5732 5734 5735 5737 5739 5740 5742 5743 5745 5747 5748
5585 5586 5588 5590 5592 5595 5599 5606 5614 5623 5634 5644 5654 5663 5672 5680 5687 5693 5699 5704 5708 5712 5715 5717 5718 5719 5719 5720 5720 5721 5723 5725 5726 5728 5729 5731 5733 5734 5736 5738 5739 5741 5742
5570 5572 5574 5576 5579 5581 5583 5587 5594 5603 5613 5625 5636 5647 5657 5666 5674 5681 5688 5693 5698 5703 5706 5709 5711 5712 5713 5714 5715 5716 5717 5719 5721 5722 5724 5725 5727 5729 5730 5732 5734 5736 5737
5554 5556 5560 5563 5566 5568 5571 5574 5578 5585 5594 5605 5617 5630 5641 5652 5661 5669 5676 5683 5688 5693 5697 5701 5704 5706 5707 5708 5709 5710 5712 5713 5715 5716 5718 5720 5721 5723 5725 5727 5729 5731 5733
5538 5541 5545 5549 5552 5556 5559 5562 5566 5572 5579 5589 5600 5613 5626 5637 5647 5656 5665 5672 5678 5684 5689 5693 5696 5698 5700 5701 5703 5704 5706 5708 5709 5711 5713 5715 5716 5718 5720 5722 5724 5727 5730